Home   Weather   Neuburg an der Donau   Past weeks

Flag for Germany Past Weather in Neuburg an der Donau, Bavaria, Germany — Yesterday and Last 2 Weeks

Now
25 °F

Fog.


Feels Like: 25 °F
Forecast: 38 / 45 °F
Wind: No wind

Location: Neuburg / Donau

Current Time: Feb 27, 2017 at 8:18:52 am

Latest Report: Feb 27, 2017 at 7:20 am


Visibility: N/A

Pressure: 29.89 "Hg

Humidity: 100%

Dew Point: 25 °F

Location of Neuburg an der DonauLocation

Past Weather in Neuburg an der Donau — Graph

°F

Neuburg an der Donau Temperature Yesterday

Maximum temperature yesterday: 52 °F (at 2:20 pm)
Minimum temperature yesterday: 28 °F (at 7:20 am)
Average temperature yesterday: 38 °F

High & Low Weather Summary for the Past Weeks

 TemperatureHumidityPressure
High63 °F (Feb 23, 2:20 pm)100% (Feb 15, 5:20 am)30.57 "Hg (Feb 15, 5:20 am)
Low23 °F (Feb 15, 7:20 am)30% (Feb 23, 2:20 pm)29.47 "Hg (Feb 23, 4:20 pm)
Average39 °F82%30.17 "Hg
* Reported Feb 12 6:20 am — Feb 27 6:20 am, Neuburg an der Donau, Weather by CustomWeather, © 2017

Note: Actual official high and low records may vary slightly from our data, if they occured in-between our weather recording intervals... More about our weather records

Advertising

Neuburg an der Donau Weather History for the Previous 24 Hours

Scroll right to see more
 ConditionsComfort  
Time TempWeatherWind HumidityBarometerVisibility
6:20 am
Mon, Feb 27
27 °FFog.No wind93%29.89 "HgN/A
5:20 am27 °FChilly.2 mph93%29.92 "HgN/A
4:20 am27 °FChilly.2 mph100%29.95 "HgN/A
3:20 am28 °FChilly.1 mph93%29.95 "HgN/A
2:20 am28 °FChilly.No wind93%29.95 "HgN/A
1:20 am28 °FChilly.2 mph93%29.98 "HgN/A
12:20 am30 °FChilly.2 mph93%29.98 "HgN/A
11:20 pm
Sun, Feb 26
32 °FChilly.1 mph87%29.98 "HgN/A
10:20 pm34 °FChilly.3 mph87%29.98 "HgN/A
9:20 pm32 °FPassing clouds.2 mph93%29.98 "HgN/A
8:20 pm34 °FPassing clouds.1 mph87%29.98 "HgN/A
7:20 pm37 °FPassing clouds.3 mph81%29.98 "HgN/A
6:20 pm45 °FPassing clouds.2 mph66%29.98 "HgN/A
5:20 pm50 °FScattered clouds.2 mph54%29.98 "HgN/A
4:20 pm50 °FBroken clouds.5 mph58%29.98 "HgN/A
3:20 pm52 °FBroken clouds.7 mph47%29.98 "HgN/A
2:20 pm52 °FBroken clouds.8 mph47%30.01 "HgN/A
1:20 pm50 °FPartly sunny.2 mph50%30.01 "HgN/A
12:20 pm46 °FBroken clouds.5 mph62%30.04 "HgN/A
11:20 am43 °FPartly sunny.7 mph66%30.07 "HgN/A
10:20 am41 °FPartly sunny.3 mph70%30.07 "HgN/A
9:20 am36 °FBroken clouds.5 mph87%30.07 "HgN/A
8:20 am32 °FBroken clouds.3 mph93%30.07 "HgN/A
Weather by CustomWeather, © 2017

See weather overviewHow to use our weather pages